Regional Weather Roundup
Issued by NWS

Home | Current Version | Previous Version | Graphics & Text | Print | Product List | Glossary On
Versions: 1 2 3 4 5 6 7 8 9 10 11 12 13 14 15 16 17 18 19 20 21 22 23 24 25 26 27 28 29 30 31 32 33 34 35 36 37 38 39 40 41 42 43 44 45 46 47 48 49 50
000
ASUS43 KMKX 011411
RWRWI

WISCONSIN REGIONAL WEATHER ROUNDUP
NATIONAL WEATHER SERVICE MILWAUKEE/SULLIVAN WI
900 AM CDT MON SEP 01 2014

NOTE: "FAIR" INDICATES FEW OR NO CLOUDS BELOW 12,000 FEET WITH NO
SIGNIFICANT WEATHER AND/OR OBSTRUCTIONS TO VISIBILITY.

WIZ001-002-006>008-014>016-023>028-011500-
NORTHWEST WISCONSIN

CITY           SKY/WX    TMP DP  RH WIND       PRES   REMARKS
SUPERIOR ARPT  CLOUDY    65  62  90 W7        29.60F
ASHLAND        CLOUDY    64  63  96 S5        29.61F
HAYWARD        CLOUDY    64  63  96 S5        29.63S
SIREN          PTSUNNY   64  63  97 CALM      29.64S
RICE LAKE      CLOUDY    65  63  94 S5        29.66S
LADYSMITH      RAIN      64  63  96 S8        29.68R
EAU CLAIRE     LGT RAIN  64  64 100 S6        29.64F
MENOMONIE      CLOUDY    65  65  98 SE5       29.65F
NEW RICHMOND   PTSUNNY   65  64  98 W6        29.66R
OSCEOLA        CLOUDY    66  66 100 W5        29.67R
$$

WIZ003>005-009-010-017-018-011500-
NORTH CENTRAL WISCONSIN

CITY           SKY/WX    TMP DP  RH WIND       PRES   REMARKS
WOODRUFF       LGT RAIN  64  61  92 SW5       29.66S
RHINELANDER    LGT RAIN  62  61  96 S6        29.68R
EAGLE RIVER    LGT RAIN  63  63 100 SW6       29.67R
LAND O LAKES   CLOUDY    65  62  90 SW7       29.67R
PHILLIPS       LGT RAIN  62  61  97 SW10      29.65S
TOMAHAWK       CLOUDY    62  60  94 CALM      29.68S
MEDFORD        RAIN      62  61  97 SW3       29.68S
MERRILL        CLOUDY    64  62  94 SW5       29.68F
$$

WIZ029-030-035-036-043>047-011500-
CENTRAL WISCONSIN

CITY           SKY/WX    TMP DP  RH WIND       PRES   REMARKS
WAUSAU         LGT RAIN  65  61  87 S6        29.67F
MOSINEE        CLOUDY    64  63  94 S5        29.70F
MARSHFIELD     RAIN      64  62  93 SW8       29.69R FOG
STEVENS POINT  CLOUDY    63  61  95 SW5       29.70S
WAUPACA        LGT RAIN  69  65  87 SW6       29.70R
WAUTOMA        CLOUDY    69  64  84 W8        29.71R
WISC RAPIDS    CLOUDY    65  63  93 SW7       29.71S
CAMP DOUGLAS   DRIZZLE   66  66 100 SW9       29.71R FOG
$$

WIZ011>013-019>022-031-037>040-048>050-011500-
NORTHEAST WISCONSIN

CITY           SKY/WX    TMP DP  RH WIND       PRES   REMARKS
ANTIGO         LGT RAIN  63  60  92 SW10      29.71R
STURGEON BAY   CLOUDY    70  66  88 S14       29.69R
GREEN BAY      CLOUDY    70  68  93 S5        29.69R
MANITOWOC      LGT RAIN  70  68  93 SW9       29.69R FOG
APPLETON       PTSUNNY   70  66  88 SW6       29.69R
CLINTONVILLE   CLOUDY    68  63  83 NW5       29.68F
OSHKOSH        LGT RAIN  70  66  87 SW8       29.71R
$$

WIZ032>034-041-042-053>061-011500-
SOUTHWEST WISCONSIN

CITY           SKY/WX    TMP DP  RH WIND       PRES   REMARKS
LA CROSSE      LGT RAIN  67  64  90 S8        29.67F
SPARTA         TSTM      64  62  94 CALM      29.70S
VIROQUA        CLOUDY    65  65 100 S9        29.71S
BOSCOBEL       CLOUDY    67  64  90 SW3       29.72S
PRAIRIE DU CHI RAIN      66  63  87 S7        29.71S
PLATTEVILLE    CLOUDY    67  65  91 S10       29.76S
$$

WIZ056-057-062-063-064-067-068-011500-
SOUTH CENTRAL WISCONSIN

CITY           SKY/WX    TMP DP  RH WIND       PRES   REMARKS
BARABOO/DELLS  CLOUDY    70  59  67 SW10G16   29.72R
LONE ROCK      CLOUDY    73  63  70 SW5       29.73R
WATERTOWN      LGT RAIN  69  69 100 SW7       29.73R
MADISON        CLOUDY    70  62  76 SW8       29.73R
MIDDLETON      PTSUNNY   70  62  74 SW7       29.73F
MONROE         PTSUNNY   68  63  83 SW8       29.74S
JANESVILLE     CLOUDY    72  64  78 S6        29.72R
$$

WIZ051-052-058>065-066-070>072-011500-
SOUTHEAST WISCONSIN

CITY           SKY/WX    TMP DP  RH WIND       PRES   REMARKS
MILWAUKEE      CLOUDY    75  70  84 S12       29.70F
WAUKESHA       CLOUDY    72  68  88 S14       29.73R FOG
MILWAUKEE/TIMM CLOUDY    73  68  83 S10       29.71R
RACINE         CLOUDY    75  70  84 S9        29.72R
BURLINGTON     CLOUDY    72  69  90 SW15G21   29.73R
KENOSHA        CLOUDY    75  70  84 SW15G24   29.71S
FOND DU LAC    LGT RAIN  70  67  90 W9        29.72R
SHEBOYGAN      CLOUDY    71  69  93 S14       29.69R FOG
WEST BEND      CLOUDY    72  66  83 S8        29.71S
JUNEAU         LGT RAIN  68  66  94 SW8       29.75R
$$

LSZ147-162-011500-
LAKE SUPERIOR

STATION/POSITION TIME  TEMP    WIND        PRES    WAVE
                       AIR SEA DIR/SP/G            HT/PER
                 (UTC) (F)     (DEG/KT/KT) (MB)    (FT/S)
W MID LAKE BUOY  1350   60 58  240/ 14/ 16 1001.1R   2/ 4
DEVILS ISLAND    1400   63     240/ 14/ 16 1001.5F
PORT WING        1340   65     250/  5/  8 1002.7R
SAXON HARBOR     1300   64     210/  8/ 13 1003.4R
$$

LMZ867-665-643>646-011500-
LAKE MICHIGAN

STATION/POSITION TIME  TEMP    WIND        PRES    WAVE
                       AIR SEA DIR/SP/G            HT/PER
                 (UTC) (F)     (DEG/KT/KT) (MB)    (FT/S)
N MID LAKE BUOY  1350   68 65  190/ 19/ 21 1004.1F   4/ 5
NORTHPORT PIER   1300   68     150/  9/ 15 1004.7F
KEWAUNEE LAKESHO 1300   63     180/ 10/ 12 1004.0F
SHEBOYGAN LAKESH 1400   69 57  200/ 14/ 15 1005.4R
ATWATER BUOY     1400   70     180/  8/  8 1006.9R
MILWAUKEE LAKESH 1300   67     150/ 16/ 17   N/A
S MID LAKE BUOY  1350   72 69  170/ 19/ 21 1005.8F   3/ 4
KENOSHA   LAKESH 1400   76     200/ 11/ 19 1005.8S
$$

TC  - TEMPERATURE IN CELSIUS
VSB - VISIBILITY IN STATUTE MILES
WCI - WIND CHILL INDEX
HX  - HEAT INDEX




USA.gov is the U.S. government's official web portal to all federal, state and local government web resources and services.